This demonstration page uses our WeatherBlox Daily Observations layout. Learn more.

41.55636, -103.73856

Hourly Observations for January 31, 2019

Temp ( °F °C ) Dew Point ( °F °C ) Humidity (%) Winds ( mph kmh ) Pressure ( in mb ) Visibility ( mi km ) Precip ( " mm )
12:53 am 00:53 Cloudy 30 -1.1 15 -9.4 54 54 NNW 5 7 29.83 1010 10 16.09344 0 0
1:53 am 01:53 Clear 24 -4.4 14 -10 65 65 WNW 9 15 29.85 1011 10 16.09344 0 0
2:53 am 02:53 Clear 23 -5 14 -10 68 68 WNW 9 15 29.85 1011 10 16.09344 0 0
3:53 am 03:53 Clear 20 -6.7 13 -10.6 74 74 NNW 7 11 29.88 1012 10 16.09344 0 0
4:53 am 04:53 Clear 20 -6.7 13 -10.6 74 74 WNW 5 7 29.91 1013 10 16.09344 0 0
5:53 am 05:53 Clear 20 -6.7 13 -10.6 74 74 NW 6 9 29.91 1013 10 16.09344 0 0
6:53 am 06:53 Clear 20 -6.7 13 -10.6 74 74 NW 6 9 29.94 1014 10 16.09344 0 0
7:53 am 07:53 Sunny 26 -3.3 16 -8.9 66 66 N 3 6 29.94 1014 10 16.09344 0 0
8:53 am 08:53 Sunny 31 -0.6 18 -7.8 59 59 NNW 6 9 29.94 1014 10 16.09344 0 0
9:53 am 09:53 Sunny 39 3.9 18 -7.8 43 43 WNW 7 11 29.94 1014 10 16.09344 0 0
10:53 am 10:53 Sunny 45 7.2 18 -7.8 34 34 W 10 17 29.94 1014 10 16.09344 0 0
11:53 am 11:53 Sunny 49 9.4 17 -8.3 28 28 WNW 13 20 29.91 1013 10 16.09344 0 0
12:53 pm 12:53 Sunny 52 11.1 15 -9.4 23 23 WNW 13 20 29.88 1012 10 16.09344 0 0
1:53 pm 13:53 Sunny 53 11.7 16 -8.9 23 23 WNW 7 11 29.91 1013 10 16.09344 0 0
2:53 pm 14:53 Sunny 52 11.1 17 -8.3 25 25 WNW 12 19 29.91 1013 10 16.09344 0 0
3:53 pm 15:53 Sunny 51 10.6 17 -8.3 26 26 WNW 9 15 29.91 1013 10 16.09344 0 0
4:53 pm 16:53 Sunny 46 7.8 18 -7.8 32 32 WNW 6 9 29.94 1014 10 16.09344 0 0
5:53 pm 17:53 Clear 39 3.9 19 -7.2 45 45 W 7 11 29.97 1015 10 16.09344 0 0
6:53 pm 18:53 Clear 30 -1.1 17 -8.3 58 58 Calm 30.03 1017 10 16.09344 0 0
7:53 pm 19:53 Clear 29 -1.7 18 -7.8 63 63 NW 5 7 30 1016 10 16.09344 0 0
8:53 pm 20:53 Clear 27 -2.8 18 -7.8 69 69 WNW 7 11 30 1016 10 16.09344 0 0
9:53 pm 21:53 Clear 24 -4.4 16 -8.9 71 71 Calm 30 1016 10 16.09344 0 0
10:53 pm 22:53 Clear 24 -4.4 17 -8.3 75 75 Calm 29.97 1015 10 16.09344 0 0
11:53 pm 23:53 Clear 21 -6.1 16 -8.9 81 81 NNE 5 7 29.97 1015 10 16.09344 0 0

Powered by AerisWeather